Lid_Strength_Index
1 1 0 1 6 6 9 9 6 8 7 5 5 6 6 5 6 8 1 -0 -1 -1 -1 -1 -1 -2 -2 -2 -1 -1 -2 -2 -2 -2 -2 -2 -2 -2 -2 -2 -2 -2 -2 -2 -2 -2 -2 -2 -2
2 2 1 3 8 10 9 7 8 7 6 6 5 6 5 6 4 3 2 -0 -1 -1 -1 -1 -1 -2 -2 -1 -1 -2 -2 -2 -2 -2 -2 -2 -2 -2 -2 -2 -2 -2 -2 -2 -2 -2 -2 -2 -2
3 3 3 5 7 10 10 7 6 7 5 5 6 4 5 5 3 2 0 -0 -1 -1 -1 -1 -1 -2 -1 -1 -2 -2 -2 -2 -2 -2 -2 -2 -2 -2 -2 -2 -2 -2 -2 -2 -2 -2 -2 -2 -2
2 3 4 7 9 8 8 6 6 6 6 6 4 6 4 2 3 1 -0 -1 -0 -1 -1 -1 -1 -2 -2 -2 -2 -2 -2 -2 -2 -1 -2 -2 -2 -2 -2 -2 -2 -2 -3 -2 -2 -2 -2 -2 -2
3 4 7 8 9 9 8 6 5 6 5 5 5 6 5 2 1 0 0 -0 -0 -1 -1 -1 -1 -1 -2 -2 -2 -2 -2 -2 -2 -1 -2 -2 -2 -2 -2 -2 -2 -2 -2 -2 -2 -2 -2 -2 -2
5 5 8 10 9 8 7 6 5 5 6 6 6 5 5 2 1 1 -0 -0 -1 -0 -1 -1 0 -0 -1 -2 -2 -2 -2 -2 -2 -1 -2 -2 -2 -2 -2 -2 -2 -2 -2 -2 -2 -2 -2 -2 -2
6 6 8 8 9 8 7 6 6 6 6 6 4 6 4 3 1 0 -0 -0 -1 -1 -1 -1 -1 -1 0 -1 -1 -1 -2 -2 -2 -1 -2 -2 -2 -2 -2 -2 -2 -2 -2 -2 -2 -2 -2 -2 -2
5 6 9 9 9 9 7 6 6 6 7 5 4 7 6 3 1 0 0 -0 -0 -1 -1 -1 -1 -1 -1 -2 0 -0 -1 -1 -1 -1 -0 -0 -1 -1 -2 -1 -2 -2 -2 -2 -2 -2 -1 -2 -1
6 7 9 9 9 8 7 6 7 6 6 6 4 5 3 1 1 1 1 1 1 0 -0 -1 -1 -1 -1 -1 -0 0 0 -0 -0 0 1 1 -2 -2 -1 -1 -2 -2 -2 -2 -2 -2 -2 -1 -0
6 8 8 7 7 7 7 6 6 6 6 6 6 4 2 2 2 3 3 3 2 1 0 -0 -0 -1 -1 -1 -1 -2 -2 -2 -2 -2 -2 -2 -2 -2 -1 -0 -1 -1 -1 -2 -2 -1 -0 -1 -2
7 8 8 8 8 7 7 7 6 6 7 5 5 5 3 3 3 3 3 2 2 1 1 -0 -0 -0 -0 -0 -1 -1 -1 -2 -2 -2 -2 -2 -1 -2 -2 -2 -2 -2 -0 -2 -2 -1 -1 -0 -1
8 9 8 8 8 8 8 7 7 6 6 6 5 4 3 4 3 3 3 2 2 1 1 -0 -1 0 -1 -1 -1 -1 -1 -1 -1 -2 -2 -2 -1 -1 -1 -1 -2 -2 -2 -1 -1 -1 -1 -0 -0
8 9 8 8 8 8 8 8 7 7 5 6 6 4 3 3 3 2 2 1 1 1 1 0 -0 0 -0 -0 -1 -0 -1 -1 -1 -1 -2 -2 -1 -1 -1 -1 -1 -1 -1 -1 -0 -0 -0 -0 -0
9 8 8 8 8 8 9 9 9 7 7 7 7 5 4 3 3 2 2 2 2 1 1 0 1 0 1 0 -0 -1 -0 -1 -1 -1 -1 -1 -1 -1 -1 -1 -1 -1 -1 -0 0 0 0 -0 -0
8 9 9 9 9 9 8 9 9 7 8 8 8 6 5 3 2 3 2 2 1 1 0 0 0 -0 1 0 0 -1 -1 -0 -0 -1 -1 -1 -1 -0 -0 -0 -0 -0 -0 0 0 1 1 1 1
9 9 11 10 9 9 9 10 10 8 8 8 7 7 6 6 3 2 2 1 1 1 1 0 0 -0 1 0 -0 -1 -0 -0 -0 0 0 -0 -0 -0 0 0 0 -0 -0 1 1 1 1 1 1
11 12 12 12 10 9 10 10 9 8 8 8 8 7 7 6 6 5 2 1 1 1 1 1 0 0 0 -0 -0 -0 -0 -1 -0 0 1 1 0 0 0 1 1 1 1 1 1 2 2 2 3
12 13 13 12 10 10 10 10 8 8 8 7 7 7 7 6 6 5 5 4 1 0 0 0 0 0 0 0 0 -0 -0 -0 -1 -0 1 1 1 1 1 1 1 2 2 2 3 4 4 4 3
10 12 12 12 11 10 10 10 9 8 8 8 7 7 6 6 5 6 6 5 5 4 1 1 1 0 1 1 1 1 1 0 0 -0 0 1 2 2 1 1 2 3 3 3 4 5 6 5 5
11 12 12 12 11 11 11 11 9 8 8 7 7 7 6 7 6 7 7 6 6 6 5 2 1 0 0 1 1 0 1 0 0 -0 0 1 2 2 3 3 2 2 4 5 6 7 6 6 7
12 12 12 12 12 12 12 11 11 10 10 9 9 8 8 8 8 8 6 6 6 6 6 5 3 0 0 0 0 0 0 0 1 1 0 0 1 3 4 3 3 3 5 5 5 6 7 6 9
13 11 12 12 12 14 13 15 11 11 10 10 9 9 8 8 7 7 6 6 5 5 5 6 4 1 0 -0 1 1 2 2 1 1 0 -0 -0 1 2 2 2 2 3 4 5 5 6 6 7
12 11 11 12 12 13 13 14 12 13 11 10 9 8 7 8 8 7 7 7 6 5 4 3 6 4 1 0 0 1 1 1 0 1 1 0 0 0 1 1 1 3 3 4 4 5 6 6 6
11 11 12 12 12 16 13 13 13 12 11 11 10 8 8 8 8 7 7 6 6 5 4 2 3 5 4 0 0 1 1 1 1 1 1 1 0 0 1 1 2 2 3 4 5 5 6 6 7
11 11 15 15 16 17 16 15 13 11 12 10 10 8 8 8 7 7 7 7 6 6 5 5 2 2 1 1 1 1 1 1 1 1 1 1 2 3 1 1 2 2 3 3 4 5 5 5 6
12 11 14 18 18 16 16 16 13 11 10 10 9 8 8 8 8 8 7 7 7 6 6 5 5 3 2 1 1 1 1 1 1 2 2 2 3 3 4 4 3 3 3 3 3 3 4 5 5
12 13 12 16 19 15 14 13 11 11 11 9 9 8 9 8 8 8 7 7 6 6 6 5 5 5 4 3 3 3 3 3 4 4 4 4 3 4 3 2 3 3 3 3 2 2 3 4 4
11 10 14 13 17 17 16 16 13 12 11 9 9 9 9 9 8 8 8 8 7 7 6 6 5 6 5 5 4 4 4 4 3 3 3 3 3 3 2 2 2 2 2 2 2 3 3 4 4
13 13 13 12 13 17 17 14 11 11 10 9 9 8 9 8 8 8 8 8 8 7 7 7 7 6 6 6 5 5 5 5 5 5 5 5 4 4 4 4 4 4 4 4 4 4 4 5 4
11 12 12 14 16 15 15 14 11 11 9 8 8 9 8 8 8 8 8 8 8 9 8 8 8 8 7 7 8 8 7 7 7 7 7 7 6 6 6 6 6 6 6 5 5 5 6 6 6